QPF
0.03 0.02 0.01 0.01 0.01 0.01 0.00 0.00 0.00 0.00 0.00 0.00 0.00 0.00 0.00 0.00 0.00 0.00 0.00 0.00 0.00 0.00 0.00 0.00 0.00 0.00 0.00 0.00 0.00 0.00 0.00 0.00 0.02 0.04 0.07 0.10 0.13 0.14 0.12 0.12 0.11 0.10 0.08
0.02 0.01 0.00 0.01 0.00 0.00 0.00 0.00 0.00 0.00 0.00 0.00 0.00 0.00 0.00 0.00 0.00 0.00 0.00 0.00 0.00 0.00 0.00 0.00 0.00 0.00 0.00 0.00 0.00 0.00 0.00 0.00 0.02 0.04 0.07 0.10 0.11 0.13 0.13 0.14 0.14 0.12 0.11
0.01 0.01 0.00 0.00 0.00 0.00 0.00 0.00 0.00 0.00 0.00 0.00 0.00 0.00 0.00 0.00 0.00 0.00 0.00 0.00 0.00 0.00 0.00 0.00 0.00 0.00 0.00 0.00 0.00 0.00 0.00 0.00 0.01 0.05 0.08 0.10 0.11 0.11 0.09 0.08 0.09 0.11 0.11
0.00 0.00 0.00 0.00 0.00 0.00 0.00 0.00 0.00 0.00 0.00 0.00 0.00 0.00 0.00 0.00 0.00 0.00 0.00 0.00 0.00 0.00 0.00 0.00 0.00 0.00 0.00 0.00 0.00 0.00 0.00 0.00 0.01 0.03 0.06 0.07 0.08 0.11 0.12 0.09 0.08 0.08 0.09
0.00 0.00 0.00 0.00 0.00 0.00 0.00 0.00 0.00 0.00 0.00 0.00 0.00 0.00 0.00 0.00 0.00 0.00 0.00 0.00 0.00 0.00 0.00 0.00 0.00 0.00 0.00 0.00 0.00 0.00 0.00 0.00 0.00 0.01 0.03 0.04 0.05 0.07 0.10 0.10 0.08 0.07 0.07
0.00 0.00 0.00 0.00 0.00 0.00 0.00 0.00 0.00 0.00 0.00 0.00 0.00 0.00 0.00 0.00 0.00 0.00 0.00 0.00 0.00 0.00 0.00 0.00 0.00 0.00 0.00 0.00 0.00 0.00 0.00 0.00 0.00 0.00 0.01 0.02 0.03 0.05 0.07 0.07 0.07 0.06 0.05
0.00 0.00 0.00 0.00 0.00 0.00 0.00 0.00 0.00 0.00 0.00 0.00 0.00 0.00 0.00 0.00 0.00 0.00 0.00 0.00 0.00 0.00 0.00 0.00 0.00 0.00 0.00 0.00 0.00 0.00 0.00 0.00 0.00 0.00 0.00 0.01 0.01 0.02 0.04 0.05 0.05 0.04 0.04
0.00 0.00 0.00 0.00 0.00 0.00 0.00 0.00 0.00 0.00 0.00 0.00 0.00 0.00 0.00 0.00 0.00 0.00 0.00 0.00 0.00 0.00 0.00 0.00 0.00 0.00 0.00 0.00 0.00 0.00 0.00 0.00 0.00 0.00 0.00 0.00 0.01 0.01 0.02 0.04 0.07 0.08 0.06
0.00 0.00 0.00 0.00 0.00 0.00 0.00 0.00 0.00 0.00 0.00 0.00 0.00 0.00 0.00 0.00 0.00 0.00 0.00 0.00 0.00 0.00 0.00 0.00 0.00 0.00 0.00 0.00 0.00 0.00 0.00 0.00 0.00 0.00 0.00 0.00 0.00 0.01 0.02 0.03 0.06 0.10 0.11
0.00 0.00 0.00 0.00 0.00 0.00 0.00 0.00 0.00 0.00 0.00 0.00 0.00 0.00 0.00 0.00 0.00 0.00 0.00 0.00 0.00 0.00 0.00 0.00 0.00 0.00 0.00 0.00 0.00 0.00 0.00 0.00 0.00 0.00 0.00 0.00 0.00 0.00 0.01 0.02 0.03 0.07 0.10
0.00 0.00 0.00 0.00 0.00 0.00 0.00 0.00 0.00 0.00 0.00 0.00 0.00 0.00 0.00 0.00 0.00 0.00 0.00 0.00 0.00 0.00 0.00 0.00 0.00 0.00 0.00 0.00 0.00 0.00 0.00 0.00 0.00 0.00 0.00 0.00 0.00 0.00 0.00 0.00 0.02 0.04 0.07
0.00 0.00 0.00 0.00 0.00 0.00 0.00 0.00 0.00 0.00 0.00 0.00 0.00 0.00 0.00 0.00 0.00 0.00 0.00 0.00 0.00 0.00 0.00 0.00 0.00 0.00 0.00 0.00 0.00 0.00 0.00 0.00 0.00 0.00 0.00 0.00 0.00 0.00 0.00 0.00 0.01 0.02 0.04
0.00 0.00 0.00 0.00 0.00 0.00 0.00 0.00 0.00 0.00 0.00 0.00 0.00 0.00 0.00 0.00 0.00 0.00 0.00 0.00 0.00 0.00 0.00 0.00 0.00 0.00 0.00 0.00 0.00 0.00 0.00 0.00 0.00 0.00 0.00 0.00 0.00 0.00 0.00 0.00 0.00 0.01 0.02
0.00 0.00 0.00 0.00 0.00 0.00 0.00 0.00 0.00 0.00 0.00 0.00 0.00 0.00 0.00 0.00 0.00 0.00 0.00 0.00 0.00 0.00 0.00 0.00 0.00 0.00 0.00 0.00 0.00 0.00 0.00 0.00 0.00 0.00 0.00 0.00 0.00 0.00 0.00 0.00 0.00 0.00 0.01
0.00 0.00 0.00 0.00 0.00 0.00 0.00 0.00 0.00 0.00 0.00 0.00 0.00 0.00 0.00 0.00 0.00 0.00 0.00 0.00 0.00 0.00 0.00 0.00 0.00 0.00 0.00 0.00 0.00 0.00 0.00 0.00 0.00 0.00 0.00 0.00 0.00 0.00 0.00 0.00 0.00 0.00 0.00
0.00 0.00 0.00 0.00 0.00 0.00 0.00 0.00 0.00 0.00 0.00 0.00 0.00 0.00 0.00 0.00 0.00 0.00 0.00 0.00 0.00 0.00 0.00 0.00 0.00 0.00 0.00 0.00 0.00 0.00 0.00 0.00 0.00 0.00 0.00 0.00 0.00 0.00 0.00 0.00 0.00 0.00 0.00
0.00 0.00 0.00 0.00 0.00 0.00 0.00 0.00 0.00 0.00 0.00 0.00 0.00 0.00 0.00 0.00 0.00 0.00 0.00 0.00 0.00 0.00 0.00 0.00 0.00 0.00 0.00 0.00 0.00 0.00 0.00 0.00 0.00 0.00 0.00 0.00 0.00 0.00 0.00 0.00 0.01 0.00 0.00
0.00 0.00 0.00 0.00 0.00 0.00 0.00 0.00 0.00 0.00 0.00 0.00 0.00 0.00 0.00 0.00 0.00 0.00 0.00 0.00 0.00 0.00 0.00 0.00 0.00 0.00 0.00 0.00 0.00 0.00 0.00 0.00 0.00 0.00 0.00 0.00 0.00 0.00 0.00 0.00 0.00 0.00 0.00
0.00 0.00 0.00 0.00 0.00 0.00 0.00 0.00 0.00 0.00 0.00 0.00 0.00 0.00 0.00 0.00 0.00 0.00 0.00 0.00 0.00 0.00 0.00 0.00 0.00 0.00 0.00 0.00 0.00 0.00 0.00 0.00 0.00 0.00 0.00 0.00 0.00 0.00 0.00 0.00 0.00 0.00 0.00
0.00 0.00 0.00 0.00 0.00 0.00 0.00 0.00 0.00 0.00 0.00 0.00 0.00 0.00 0.00 0.00 0.00 0.00 0.00 0.00 0.00 0.00 0.00 0.00 0.00 0.00 0.00 0.00 0.00 0.00 0.00 0.00 0.00 0.00 0.00 0.00 0.00 0.00 0.01 0.01 0.00 0.01 0.01
0.00 0.00 0.00 0.00 0.00 0.00 0.00 0.00 0.00 0.00 0.00 0.00 0.00 0.00 0.00 0.00 0.00 0.00 0.00 0.00 0.00 0.00 0.00 0.00 0.00 0.00 0.00 0.00 0.00 0.00 0.00 0.00 0.00 0.00 0.00 0.00 0.00 0.00 0.01 0.01 0.01 0.01 0.01
0.00 0.00 0.00 0.00 0.00 0.00 0.00 0.00 0.00 0.00 0.00 0.00 0.00 0.00 0.00 0.00 0.00 0.00 0.00 0.00 0.00 0.00 0.00 0.00 0.00 0.00 0.00 0.00 0.00 0.00 0.00 0.00 0.00 0.00 0.00 0.00 0.00 0.01 0.01 0.02 0.02 0.02 0.02
0.00 0.00 0.00 0.00 0.00 0.00 0.00 0.00 0.00 0.00 0.00 0.00 0.00 0.00 0.00 0.00 0.00 0.00 0.00 0.00 0.00 0.00 0.00 0.00 0.00 0.00 0.00 0.00 0.00 0.00 0.00 0.00 0.01 0.01 0.01 0.01 0.01 0.01 0.02 0.03 0.04 0.05 0.04
0.00 0.00 0.00 0.00 0.00 0.00 0.00 0.00 0.00 0.00 0.00 0.00 0.00 0.00 0.00 0.00 0.00 0.00 0.00 0.00 0.00 0.00 0.00 0.00 0.00 0.00 0.00 0.00 0.00 0.00 0.00 0.00 0.02 0.02 0.02 0.02 0.02 0.03 0.04 0.04 0.05 0.06 0.06
0.00 0.00 0.00 0.00 0.00 0.00 0.00 0.00 0.00 0.00 0.00 0.00 0.00 0.00 0.00 0.00 0.00 0.00 0.00 0.00 0.00 0.00 0.00 0.00 0.00 0.00 0.00 0.00 0.00 0.00 0.00 0.00 0.00 0.01 0.02 0.04 0.05 0.06 0.06 0.07 0.07 0.07 0.08
0.00 0.00 0.00 0.00 0.00 0.00 0.00 0.00 0.00 0.00 0.00 0.00 0.00 0.00 0.00 0.00 0.00 0.00 0.00 0.00 0.00 0.00 0.00 0.00 0.00 0.00 0.00 0.00 0.00 0.00 0.00 0.00 0.00 0.00 0.02 0.04 0.06 0.07 0.06 0.07 0.08 0.08 0.09
MSLP
1016.35 1016.45 1016.50 1016.50 1016.45 1016.36 1016.27 1016.21 1016.24 1016.34 1016.51 1016.73 1016.95 1017.11 1017.18 1017.13 1016.94 1016.66 1016.29 1015.91 1015.55 1015.26 1015.05 1014.94 1014.91 1014.92 1014.94 1014.92 1014.83 1014.65 1014.36 1013.97 1013.50 1012.99 1012.46 1011.96 1011.51 1011.15 1010.90 1010.78 1010.80 1010.94 1011.19
1016.16 1016.27 1016.32 1016.32 1016.26 1016.17 1016.08 1016.05 1016.12 1016.28 1016.52 1016.81 1017.08 1017.28 1017.36 1017.29 1017.07 1016.73 1016.33 1015.92 1015.54 1015.26 1015.07 1014.99 1014.98 1015.00 1015.00 1014.95 1014.82 1014.58 1014.23 1013.80 1013.31 1012.79 1012.27 1011.78 1011.35 1011.00 1010.75 1010.61 1010.59 1010.68 1010.87
1015.79 1015.92 1016.01 1016.03 1016.00 1015.93 1015.87 1015.88 1015.98 1016.19 1016.49 1016.82 1017.13 1017.35 1017.44 1017.36 1017.13 1016.78 1016.36 1015.94 1015.57 1015.29 1015.13 1015.05 1015.05 1015.06 1015.04 1014.95 1014.77 1014.49 1014.11 1013.67 1013.18 1012.69 1012.21 1011.77 1011.38 1011.06 1010.82 1010.66 1010.59 1010.62 1010.73
1015.30 1015.47 1015.61 1015.69 1015.71 1015.68 1015.67 1015.70 1015.84 1016.08 1016.40 1016.75 1017.08 1017.32 1017.42 1017.35 1017.12 1016.78 1016.37 1015.97 1015.62 1015.36 1015.20 1015.13 1015.11 1015.10 1015.04 1014.92 1014.70 1014.40 1014.01 1013.59 1013.14 1012.70 1012.29 1011.92 1011.59 1011.30 1011.06 1010.88 1010.76 1010.71 1010.73
1014.77 1014.99 1015.20 1015.35 1015.43 1015.46 1015.48 1015.55 1015.69 1015.93 1016.25 1016.60 1016.93 1017.17 1017.28 1017.23 1017.04 1016.73 1016.36 1015.99 1015.67 1015.43 1015.28 1015.21 1015.17 1015.12 1015.03 1014.87 1014.63 1014.32 1013.96 1013.57 1013.19 1012.83 1012.50 1012.20 1011.93 1011.67 1011.43 1011.22 1011.03 1010.88 1010.79
1014.28 1014.57 1014.86 1015.08 1015.23 1015.31 1015.36 1015.42 1015.55 1015.76 1016.05 1016.37 1016.67 1016.91 1017.04 1017.02 1016.87 1016.62 1016.31 1015.99 1015.71 1015.50 1015.36 1015.26 1015.19 1015.11 1014.99 1014.80 1014.56 1014.26 1013.94 1013.62 1013.31 1013.04 1012.79 1012.56 1012.33 1012.09 1011.84 1011.57 1011.31 1011.06 1010.85
1013.91 1014.26 1014.63 1014.92 1015.13 1015.24 1015.30 1015.34 1015.43 1015.59 1015.81 1016.08 1016.35 1016.57 1016.70 1016.72 1016.63 1016.45 1016.21 1015.95 1015.72 1015.53 1015.39 1015.28 1015.18 1015.06 1014.91 1014.71 1014.47 1014.21 1013.94 1013.68 1013.45 1013.25 1013.07 1012.89 1012.70 1012.46 1012.19 1011.87 1011.54 1011.20 1010.89
1013.69 1014.11 1014.54 1014.89 1015.13 1015.26 1015.30 1015.31 1015.33 1015.41 1015.56 1015.75 1015.97 1016.17 1016.30 1016.36 1016.32 1016.20 1016.03 1015.84 1015.65 1015.49 1015.35 1015.22 1015.10 1014.95 1014.78 1014.58 1014.35 1014.11 1013.89 1013.70 1013.53 1013.39 1013.26 1013.12 1012.94 1012.70 1012.41 1012.05 1011.66 1011.26 1010.88
1013.64 1014.10 1014.57 1014.96 1015.22 1015.34 1015.35 1015.30 1015.26 1015.25 1015.30 1015.42 1015.57 1015.73 1015.86 1015.94 1015.94 1015.88 1015.77 1015.63 1015.49 1015.34 1015.20 1015.06 1014.92 1014.75 1014.57 1014.36 1014.15 1013.94 1013.76 1013.61 1013.49 1013.39 1013.29 1013.17 1012.99 1012.75 1012.44 1012.07 1011.66 1011.24 1010.82
1013.70 1014.20 1014.69 1015.09 1015.34 1015.44 1015.41 1015.31 1015.18 1015.09 1015.05 1015.09 1015.17 1015.29 1015.40 1015.48 1015.51 1015.49 1015.42 1015.32 1015.20 1015.07 1014.93 1014.79 1014.62 1014.45 1014.25 1014.05 1013.84 1013.66 1013.50 1013.37 1013.28 1013.20 1013.11 1012.99 1012.83 1012.60 1012.30 1011.94 1011.55 1011.14 1010.75
1013.83 1014.34 1014.83 1015.21 1015.44 1015.51 1015.44 1015.28 1015.09 1014.92 1014.81 1014.77 1014.79 1014.85 1014.93 1014.99 1015.03 1015.02 1014.98 1014.90 1014.79 1014.67 1014.53 1014.38 1014.20 1014.02 1013.82 1013.61 1013.42 1013.24 1013.09 1012.97 1012.88 1012.80 1012.72 1012.61 1012.46 1012.25 1011.98 1011.68 1011.34 1011.00 1010.67
1013.95 1014.45 1014.92 1015.26 1015.45 1015.48 1015.37 1015.17 1014.94 1014.72 1014.56 1014.46 1014.42 1014.43 1014.46 1014.50 1014.51 1014.50 1014.46 1014.38 1014.28 1014.16 1014.02 1013.86 1013.68 1013.49 1013.29 1013.08 1012.89 1012.71 1012.56 1012.44 1012.34 1012.26 1012.17 1012.07 1011.94 1011.78 1011.57 1011.34 1011.09 1010.84 1010.61
1014.02 1014.48 1014.89 1015.18 1015.33 1015.32 1015.18 1014.97 1014.71 1014.48 1014.28 1014.14 1014.06 1014.02 1014.01 1014.00 1013.99 1013.95 1013.89 1013.80 1013.69 1013.57 1013.42 1013.26 1013.08 1012.89 1012.69 1012.48 1012.29 1012.11 1011.95 1011.82 1011.71 1011.63 1011.55 1011.46 1011.37 1011.26 1011.12 1010.98 1010.83 1010.68 1010.55
1013.99 1014.39 1014.73 1014.95 1015.04 1015.00 1014.85 1014.64 1014.39 1014.16 1013.96 1013.81 1013.70 1013.63 1013.57 1013.53 1013.47 1013.40 1013.31 1013.20 1013.08 1012.95 1012.80 1012.63 1012.46 1012.26 1012.06 1011.86 1011.66 1011.47 1011.31 1011.17 1011.06 1010.98 1010.91 1010.85 1010.80 1010.75 1010.69 1010.63 1010.57 1010.52 1010.47
1013.85 1014.16 1014.41 1014.55 1014.59 1014.53 1014.39 1014.20 1013.98 1013.78 1013.60 1013.46 1013.34 1013.25 1013.16 1013.08 1012.98 1012.87 1012.75 1012.62 1012.48 1012.33 1012.18 1012.01 1011.83 1011.64 1011.44 1011.24 1011.04 1010.85 1010.68 1010.54 1010.43 1010.36 1010.31 1010.29 1010.28 1010.28 1010.29 1010.30 1010.32 1010.33 1010.35
1013.58 1013.80 1013.95 1014.02 1014.02 1013.94 1013.82 1013.67 1013.51 1013.36 1013.22 1013.10 1013.00 1012.90 1012.79 1012.67 1012.54 1012.40 1012.25 1012.09 1011.93 1011.77 1011.60 1011.43 1011.24 1011.05 1010.84 1010.63 1010.43 1010.24 1010.08 1009.95 1009.85 1009.79 1009.77 1009.78 1009.81 1009.86 1009.92 1009.98 1010.04 1010.09 1010.13
1013.19 1013.31 1013.38 1013.39 1013.36 1013.29 1013.20 1013.10 1013.01 1012.92 1012.84 1012.76 1012.67 1012.58 1012.46 1012.32 1012.16 1011.99 1011.80 1011.62 1011.43 1011.25 1011.06 1010.87 1010.68 1010.47 1010.26 1010.04 1009.84 1009.65 1009.49 1009.37 1009.29 1009.26 1009.26 1009.30 1009.37 1009.45 1009.54 1009.62 1009.69 1009.75 1009.79
1012.68 1012.72 1012.73 1012.71 1012.67 1012.63 1012.58 1012.55 1012.52 1012.50 1012.48 1012.44 1012.39 1012.30 1012.17 1012.02 1011.83 1011.63 1011.42 1011.20 1010.99 1010.77 1010.56 1010.34 1010.12 1009.89 1009.66 1009.43 1009.22 1009.04 1008.89 1008.78 1008.72 1008.71 1008.74 1008.81 1008.89 1008.99 1009.08 1009.17 1009.23 1009.28 1009.30
1012.04 1012.05 1012.04 1012.02 1012.00 1012.00 1012.02 1012.05 1012.09 1012.14 1012.17 1012.17 1012.14 1012.05 1011.93 1011.75 1011.55 1011.31 1011.07 1010.82 1010.56 1010.31 1010.05 1009.79 1009.54 1009.28 1009.02 1008.78 1008.56 1008.38 1008.23 1008.14 1008.10 1008.11 1008.15 1008.23 1008.32 1008.42 1008.51 1008.59 1008.64 1008.66 1008.67
1011.30 1011.32 1011.33 1011.34 1011.38 1011.44 1011.53 1011.63 1011.74 1011.84 1011.91 1011.94 1011.92 1011.84 1011.70 1011.50 1011.27 1011.00 1010.71 1010.42 1010.12 1009.81 1009.51 1009.20 1008.90 1008.61 1008.32 1008.06 1007.84 1007.65 1007.51 1007.43 1007.40 1007.42 1007.47 1007.55 1007.64 1007.73 1007.81 1007.86 1007.90 1007.91 1007.91
1010.47 1010.54 1010.61 1010.69 1010.81 1010.95 1011.11 1011.29 1011.46 1011.60 1011.70 1011.74 1011.72 1011.62 1011.46 1011.23 1010.96 1010.65 1010.32 1009.97 1009.62 1009.26 1008.90 1008.55 1008.21 1007.88 1007.57 1007.30 1007.06 1006.88 1006.74 1006.67 1006.64 1006.66 1006.71 1006.78 1006.85 1006.92 1006.98 1007.02 1007.05 1007.06 1007.07
1009.59 1009.73 1009.89 1010.08 1010.28 1010.52 1010.76 1011.00 1011.21 1011.39 1011.50 1011.54 1011.50 1011.38 1011.18 1010.92 1010.60 1010.24 1009.86 1009.46 1009.05 1008.64 1008.24 1007.84 1007.46 1007.11 1006.79 1006.51 1006.28 1006.10 1005.97 1005.90 1005.87 1005.88 1005.91 1005.95 1006.00 1006.04 1006.07 1006.10 1006.12 1006.14 1006.18
1008.68 1008.93 1009.19 1009.48 1009.79 1010.11 1010.42 1010.72 1010.97 1011.16 1011.27 1011.29 1011.23 1011.08 1010.84 1010.53 1010.17 1009.76 1009.33 1008.87 1008.41 1007.96 1007.52 1007.09 1006.70 1006.34 1006.02 1005.75 1005.53 1005.37 1005.25 1005.19 1005.15 1005.14 1005.15 1005.15 1005.16 1005.16 1005.16 1005.17 1005.18 1005.22 1005.29
1007.82 1008.15 1008.51 1008.90 1009.29 1009.69 1010.06 1010.40 1010.67 1010.87 1010.97 1010.98 1010.89 1010.70 1010.43 1010.08 1009.67 1009.21 1008.73 1008.24 1007.74 1007.25 1006.78 1006.35 1005.95 1005.60 1005.31 1005.07 1004.88 1004.74 1004.65 1004.58 1004.54 1004.51 1004.48 1004.44 1004.39 1004.35 1004.31 1004.29 1004.29 1004.34 1004.44
1007.05 1007.44 1007.87 1008.32 1008.78 1009.23 1009.65 1010.01 1010.29 1010.49 1010.58 1010.57 1010.46 1010.25 1009.94 1009.56 1009.12 1008.63 1008.11 1007.58 1007.06 1006.55 1006.07 1005.64 1005.27 1004.95 1004.69 1004.49 1004.34 1004.24 1004.17 1004.12 1004.07 1004.02 1003.94 1003.86 1003.76 1003.66 1003.57 1003.52 1003.50 1003.55 1003.65
1006.41 1006.82 1007.28 1007.76 1008.24 1008.71 1009.14 1009.51 1009.80 1009.99 1010.08 1010.07 1009.95 1009.73 1009.41 1009.02 1008.56 1008.05 1007.51 1006.96 1006.42 1005.91 1005.43 1005.02 1004.66 1004.38 1004.17 1004.02 1003.92 1003.86 1003.82 1003.78 1003.72 1003.65 1003.54 1003.40 1003.25 1003.10 1002.97 1002.87 1002.83 1002.85 1002.96
Thickness
5720 5720 5718 5716 5713 5710 5707 5705 5702 5700 5698 5695 5692 5689 5687 5685 5685 5685 5684 5683 5683 5683 5682 5681 5681 5680 5679 5679 5679 5679 5680 5681 5683 5685 5690 5697 5702 5705 5708 5710 5711 5712 5714
5715 5716 5715 5714 5711 5707 5703 5700 5698 5695 5693 5689 5686 5683 5680 5678 5677 5677 5676 5675 5675 5675 5675 5673 5673 5673 5672 5671 5671 5670 5671 5672 5674 5675 5678 5682 5690 5697 5703 5704 5706 5708 5710
5714 5715 5714 5712 5709 5705 5702 5699 5695 5692 5689 5685 5681 5677 5674 5672 5670 5669 5668 5668 5668 5667 5667 5666 5666 5665 5664 5663 5663 5663 5662 5662 5665 5667 5668 5669 5674 5682 5692 5696 5700 5702 5705
5716 5715 5713 5711 5709 5707 5703 5699 5695 5690 5686 5681 5677 5672 5667 5664 5662 5660 5660 5660 5660 5660 5660 5659 5658 5657 5656 5656 5655 5656 5655 5655 5655 5658 5661 5663 5666 5668 5675 5685 5691 5695 5699
5718 5717 5716 5713 5711 5708 5703 5699 5693 5688 5683 5677 5672 5667 5663 5659 5657 5655 5653 5653 5652 5652 5652 5651 5650 5649 5648 5648 5647 5647 5647 5647 5648 5649 5651 5654 5658 5661 5663 5670 5679 5686 5692
5722 5720 5719 5715 5711 5707 5702 5696 5690 5684 5679 5673 5668 5663 5659 5655 5652 5650 5648 5646 5645 5645 5644 5644 5642 5641 5640 5639 5639 5639 5639 5639 5640 5641 5642 5644 5647 5651 5655 5660 5667 5674 5682
5722 5719 5716 5712 5707 5703 5698 5691 5685 5679 5674 5670 5665 5660 5656 5652 5649 5646 5643 5641 5639 5638 5637 5636 5634 5632 5631 5631 5630 5629 5630 5631 5632 5633 5634 5637 5640 5643 5647 5651 5657 5664 5673
5720 5718 5714 5710 5705 5700 5694 5688 5681 5676 5671 5667 5662 5658 5654 5650 5646 5643 5640 5637 5634 5632 5631 5628 5626 5624 5623 5622 5620 5620 5620 5621 5622 5624 5626 5628 5632 5636 5640 5644 5648 5654 5662
5719 5716 5712 5707 5701 5696 5690 5684 5678 5673 5669 5665 5660 5656 5652 5648 5644 5641 5637 5634 5631 5628 5626 5622 5619 5616 5614 5612 5611 5610 5610 5611 5612 5614 5617 5620 5623 5627 5632 5636 5640 5644 5651
5716 5713 5708 5702 5696 5691 5686 5681 5675 5670 5667 5663 5658 5655 5651 5647 5643 5638 5634 5631 5627 5623 5619 5616 5612 5609 5606 5604 5602 5600 5600 5601 5602 5604 5607 5610 5613 5618 5623 5628 5633 5638 5642
5712 5707 5702 5697 5691 5686 5681 5676 5672 5668 5664 5661 5657 5652 5648 5644 5639 5635 5631 5627 5622 5618 5614 5610 5606 5602 5599 5596 5594 5592 5591 5592 5593 5595 5597 5601 5604 5608 5613 5618 5624 5629 5635
5708 5702 5696 5691 5686 5682 5678 5673 5670 5666 5663 5659 5654 5650 5645 5640 5635 5631 5627 5622 5617 5613 5608 5604 5600 5596 5593 5590 5587 5585 5585 5584 5584 5586 5588 5591 5595 5598 5602 5607 5613 5620 5626
5703 5696 5691 5687 5683 5679 5675 5672 5668 5665 5661 5656 5651 5646 5641 5636 5631 5626 5621 5616 5611 5607 5602 5597 5593 5590 5587 5584 5582 5579 5578 5577 5577 5577 5579 5582 5584 5588 5592 5597 5603 5609 5616
5698 5692 5687 5684 5680 5677 5673 5670 5666 5663 5658 5653 5647 5642 5638 5633 5627 5621 5616 5611 5606 5601 5596 5591 5587 5584 5581 5578 5576 5573 5572 5570 5570 5570 5571 5573 5575 5579 5582 5587 5592 5598 5605
5696 5692 5687 5683 5679 5675 5671 5668 5664 5660 5655 5649 5644 5639 5634 5628 5622 5617 5611 5606 5600 5595 5590 5585 5581 5578 5574 5572 5570 5567 5565 5564 5563 5562 5562 5564 5566 5570 5573 5577 5581 5586 5593
5696 5692 5688 5683 5678 5674 5670 5666 5661 5657 5651 5646 5641 5636 5630 5624 5618 5612 5606 5600 5594 5589 5584 5579 5575 5572 5569 5567 5564 5561 5559 5556 5555 5554 5554 5554 5557 5560 5564 5568 5572 5576 5582
5696 5692 5688 5683 5679 5674 5668 5662 5658 5653 5647 5642 5637 5631 5625 5618 5613 5607 5601 5594 5589 5583 5578 5573 5569 5566 5562 5559 5556 5554 5551 5549 5548 5547 5546 5546 5549 5551 5553 5557 5561 5567 5572
5697 5693 5689 5684 5679 5672 5666 5660 5654 5649 5643 5637 5632 5626 5619 5613 5606 5600 5594 5588 5582 5577 5572 5568 5564 5560 5557 5554 5550 5547 5544 5542 5541 5539 5538 5538 5539 5540 5541 5545 5550 5555 5561
5701 5697 5691 5684 5677 5670 5663 5656 5650 5644 5638 5633 5627 5620 5613 5606 5600 5594 5588 5583 5577 5572 5567 5563 5558 5554 5552 5548 5544 5539 5537 5534 5533 5532 5530 5529 5529 5530 5530 5533 5538 5544 5550
5701 5695 5689 5681 5674 5668 5660 5652 5646 5639 5634 5628 5622 5615 5608 5601 5594 5588 5583 5577 5572 5567 5562 5558 5554 5550 5547 5543 5538 5533 5530 5527 5526 5524 5522 5520 5520 5520 5520 5523 5527 5532 5538
5700 5693 5685 5678 5672 5665 5655 5647 5641 5635 5631 5624 5616 5609 5602 5595 5589 5583 5577 5572 5567 5562 5557 5554 5550 5546 5542 5538 5534 5529 5524 5521 5519 5516 5514 5513 5511 5511 5511 5512 5516 5521 5525
5698 5690 5682 5675 5668 5660 5650 5643 5637 5633 5625 5618 5610 5603 5596 5589 5585 5578 5572 5567 5562 5557 5553 5550 5546 5543 5538 5534 5529 5524 5519 5515 5511 5510 5508 5506 5503 5502 5503 5503 5505 5507 5510
5696 5688 5679 5672 5664 5655 5646 5639 5634 5627 5618 5610 5603 5596 5589 5583 5577 5572 5567 5562 5557 5553 5550 5546 5543 5540 5536 5530 5525 5520 5516 5511 5507 5505 5502 5499 5497 5496 5496 5496 5496 5497 5501
5692 5684 5674 5667 5660 5653 5644 5637 5630 5621 5612 5604 5596 5589 5582 5577 5572 5567 5562 5558 5554 5550 5547 5544 5540 5537 5533 5528 5522 5517 5512 5507 5504 5501 5498 5496 5494 5492 5490 5490 5489 5491 5495
5690 5681 5672 5665 5658 5649 5640 5633 5625 5615 5606 5598 5590 5583 5577 5571 5567 5563 5559 5556 5553 5547 5544 5541 5537 5533 5531 5527 5519 5513 5509 5504 5501 5497 5495 5494 5492 5490 5488 5486 5485 5486 5488
5685 5676 5668 5660 5653 5644 5636 5628 5619 5610 5600 5592 5585 5577 5571 5566 5562 5559 5557 5555 5551 5547 5542 5537 5533 5531 5526 5522 5516 5510 5505 5501 5497 5494 5494 5493 5491 5489 5487 5485 5484 5484 5485